KD9DOE Weather Reports


time (UTC)temp
C
wind
direction
speed
KPH
gust
KPH
rain 1hr
cm
rain 24hr
cm
rain mn
cm
humidity
%
barometer
mb
20260504024622 13 289 0.0 0.0 0.00 0.00 0.00 56 1004.8
20260504024119 13 289 0.0 0.0 0.00 0.00 0.00 57 1004.8
20260504023615 13 289 0.0 0.0 0.00 0.00 0.00 58 1004.8
20260504023111 13 289 0.0 0.0 0.00 0.00 0.00 57 1004.7
20260504022608 13 289 0.0 0.0 0.00 0.00 0.00 57 1004.8
20260504022104 14 289 0.0 0.0 0.00 0.00 0.00 56 1004.7
20260504021602 14 289 0.0 0.0 0.00 0.00 0.00 55 1004.6
20260504021058 14 289 0.0 0.0 0.00 0.00 0.00 54 1004.7
20260504020555 14 289 0.0 0.0 0.00 0.00 0.00 54 1004.4
20260504020051 14 289 0.0 0.0 0.00 0.00 0.00 54 1004.3
20260504015548 15 289 0.0 0.0 0.00 0.00 0.00 52 1004.4
20260504015044 15 289 0.0 0.0 0.00 0.00 0.00 51 1004.1
20260504014540 15 289 0.0 0.0 0.00 0.00 0.00 52 1004.3
20260504014038 15 289 0.0 0.0 0.00 0.00 0.00 52 1004.2
20260504013535 15 289 0.0 0.0 0.00 0.00 0.00 50 1004.2
20260504013032 15 289 0.0 0.0 0.00 0.00 0.00 49 1004.2
20260504012530 16 289 0.0 0.0 0.00 0.00 0.00 49 1004.1
20260504012027 16 289 0.0 0.0 0.00 0.00 0.00 47 1004.0
20260504011524 16 289 0.0 0.0 0.00 0.00 0.00 45 1004.1
20260504011020 17 289 0.0 0.0 0.00 0.00 0.00 44 1004.2
20260504010516 17 289 0.0 0.0 0.00 0.00 0.00 43 1004.4
20260504010012 17 289 0.0 0.0 0.00 0.00 0.00 42 1004.2
20260504005509 18 289 0.0 0.0 0.00 0.00 0.00 41 1004.1
20260504005006 18 289 0.0 0.0 0.00 0.00 0.00 39 1004.0
20260504004504 19 289 0.0 0.0 0.00 0.00 0.00 37 1003.9
20260504004000 19 289 0.0 0.0 0.00 0.00 0.00 36 1004.0
20260504003456 20 289 0.0 0.0 0.00 0.00 0.00 38 1003.9
20260504002954 20 289 0.0 0.0 0.00 0.00 0.00 37 1004.0
20260504002450 20 289 0.0 0.0 0.00 0.00 0.00 36 1004.0
20260504001948 20 289 0.0 0.0 0.00 0.00 0.00 34 1004.0
20260504001445 21 290 0.0 0.0 0.00 0.00 0.00 33 1003.8
20260504000942 21 289 1.6 1.6 0.00 0.00 0.00 32 1003.7
20260504000439 21 288 1.6 1.6 0.00 0.00 0.00 33 1003.7
20260503235936 21 326 3.2 3.2 0.00 0.00 0.00 32 1003.6
20260503235434 21 24 1.6 3.2 0.00 0.00 0.00 32 1003.7
20260503234931 21 156 1.6 3.2 0.00 0.00 0.00 33 1003.5
20260503234429 21 267 0.0 0.0 0.00 0.00 0.00 32 1003.7
20260503233927 21 331 3.2 3.2 0.00 0.00 0.00 32 1003.7
20260503233423 22 229 0.0 1.6 0.00 0.00 0.00 32 1003.6
20260503232919 22 291 1.6 1.6 0.00 0.00 0.00 32 1003.8
20260503232416 22 208 4.8 6.4 0.00 0.00 0.00 32 1003.6
20260503231914 21 239 6.4 6.4 0.00 0.00 0.00 32 1003.7
20260503231411 21 183 1.6 1.6 0.00 0.00 0.00 33 1003.8
20260503230907 22 119 1.6 3.2 0.00 0.00 0.00 33 1003.8
20260503230404 22 11 3.2 3.2 0.00 0.00 0.00 32 1003.9
20260503225902 22 28 3.2 3.2 0.00 0.00 0.00 31 1003.8
20260503225357 22 258 1.6 3.2 0.00 0.00 0.00 32 1003.9
20260503224854 22 337 4.8 4.8 0.00 0.00 0.00 32 1003.9
20260503224351 22 243 1.6 1.6 0.00 0.00 0.00 33 1004.0
20260503223849 22 280 3.2 4.8 0.00 0.00 0.00 33 1004.1
20260503223347 22 251 4.8 6.4 0.00 0.00 0.00 33 1004.0
20260503222842 22 40 3.2 4.8 0.00 0.00 0.00 33 1004.1
20260503222341 22 309 0.0 0.0 0.00 0.00 0.00 33 1004.0
20260503221838 22 336 3.2 3.2 0.00 0.00 0.00 33 1004.1
20260503221337 21 78 0.0 0.0 0.00 0.00 0.00 35 1004.0
20260503220832 21 131 1.6 1.6 0.00 0.00 0.00 35 1004.3
20260503220329 21 168 3.2 3.2 0.00 0.00 0.00 34 1004.1
20260503215826 21 336 0.0 3.2 0.00 0.00 0.00 35 1004.2
20260503215323 21 14 1.6 1.6 0.00 0.00 0.00 35 1004.1
20260503214821 21 308 1.6 3.2 0.00 0.00 0.00 35 1004.2
20260503214318 21 121 1.6 1.6 0.00 0.00 0.00 35 1004.3
20260503213816 21 233 1.6 3.2 0.00 0.00 0.00 35 1004.3
20260503213313 21 314 3.2 4.8 0.00 0.00 0.00 35 1004.1
20260503212810 21 302 3.2 3.2 0.00 0.00 0.00 34 1004.6
20260503212308 21 183 6.4 9.7 0.00 0.00 0.00 35 1004.4
20260503211805 21 261 3.2 3.2 0.00 0.00 0.00 36 1004.4
20260503211302 21 149 3.2 4.8 0.00 0.00 0.00 36 1004.4
20260503210801 21 124 1.6 3.2 0.00 0.00 0.00 36 1004.4
20260503210259 21 251 4.8 6.4 0.00 0.00 0.00 35 1004.5
20260503205754 21 179 6.4 12.9 0.00 0.00 0.00 35 1004.6
20260503205251 20 345 1.6 1.6 0.00 0.00 0.00 36 1004.5
20260503204747 20 310 6.4 9.7 0.00 0.00 0.00 36 1004.5
20260503204245 20 302 6.4 9.7 0.00 0.00 0.00 37 1004.8
20260503203742 20 309 6.4 6.4 0.00 0.00 0.00 36 1005.0
20260503203240 20 241 3.2 3.2 0.00 0.00 0.00 37 1004.8
20260503202737 20 300 3.2 4.8 0.00 0.00 0.00 36 1004.9
20260503202234 20 327 3.2 4.8 0.00 0.00 0.00 37 1005.1
20260503201732 20 310 8.0 14.5 0.00 0.00 0.00 35 1005.2
20260503201230 20 321 4.8 4.8 0.00 0.00 0.00 35 1005.2
20260503200726 21 160 6.4 11.3 0.00 0.00 0.00 35 1005.2
20260503200222 20 222 1.6 1.6 0.00 0.00 0.00 37 1005.2
20260503195719 20 169 3.2 4.8 0.00 0.00 0.00 36 1005.3
20260503195216 20 144 3.2 4.8 0.00 0.00 0.00 36 1005.5
20260503194713 21 251 3.2 4.8 0.00 0.00 0.00 35 1005.5
20260503194209 20 169 3.2 3.2 0.00 0.00 0.00 35 1005.5
20260503193705 20 151 8.0 14.5 0.00 0.00 0.00 36 1005.6
20260503193201 20 340 4.8 9.7 0.00 0.00 0.00 35 1005.7
20260503192657 20 14 3.2 4.8 0.00 0.00 0.00 36 1005.8
20260503192153 20 294 3.2 3.2 0.00 0.00 0.00 34 1006.0
20260503191649 20 17 1.6 1.6 0.00 0.00 0.00 36 1005.9
20260503191147 19 345 1.6 1.6 0.00 0.00 0.00 36 1006.0
20260503190643 19 333 4.8 4.8 0.00 0.00 0.00 35 1005.8
20260503190140 20 214 3.2 4.8 0.00 0.00 0.00 35 1006.0
20260503185637 20 277 1.6 3.2 0.00 0.00 0.00 36 1006.3
20260503185132 19 4 3.2 3.2 0.00 0.00 0.00 37 1006.2
20260503184627 19 217 6.4 6.4 0.00 0.00 0.00 36 1006.2
20260503184124 19 330 1.6 3.2 0.00 0.00 0.00 37 1006.3
20260503183621 19 163 1.6 1.6 0.00 0.00 0.00 38 1006.0
20260503183118 19 345 6.4 6.4 0.00 0.00 0.00 37 1006.5
20260503182617 19 308 4.8 6.4 0.00 0.00 0.00 36 1006.3
20260503182114 19 320 6.4 11.3 0.00 0.00 0.00 37 1006.3
20260503181611 19 94 8.0 11.3 0.00 0.00 0.00 36 1006.8
20260503181108 19 286 4.8 6.4 0.00 0.00 0.00 37 1006.5
20260503180605 19 175 6.4 9.7 0.00 0.00 0.00 38 1006.5
20260503180103 18 219 1.6 3.2 0.00 0.00 0.00 42 1006.5
20260503175559 18 7 4.8 6.4 0.00 0.00 0.00 41 1006.9
20260503175056 18 39 4.8 6.4 0.00 0.00 0.00 42 1006.8
20260503174553 17 290 4.8 6.4 0.00 0.00 0.00 41 1007.0
20260503174050 17 268 4.8 6.4 0.00 0.00 0.00 42 1007.3
20260503173545 17 349 4.8 4.8 0.00 0.00 0.00 42 1007.1
20260503173041 17 333 6.4 9.7 0.00 0.00 0.00 42 1007.2
20260503172539 17 204 8.0 11.3 0.00 0.00 0.00 42 1007.1
20260503172036 17 268 4.8 6.4 0.00 0.00 0.00 42 1007.1
20260503171532 17 109 8.0 12.9 0.00 0.00 0.00 40 1007.4
20260503171030 17 31 4.8 4.8 0.00 0.00 0.00 41 1007.4
20260503170526 17 309 4.8 6.4 0.00 0.00 0.00 41 1007.4
20260503150918 13 28 4.8 9.7 0.00 0.00 0.00 57 1008.8
20260503150415 13 272 3.2 3.2 0.00 0.00 0.00 57 1008.5
20260503131308 11 198 3.2 6.4 0.00 0.00 0.00 62 1010.4
20260503130806 10 51 3.2 4.8 0.00 0.00 0.00 63 1010.3
20260503130303 10 293 4.8 6.4 0.00 0.00 0.00 63 1010.5
20260503110657 9 189 4.8 6.4 0.00 0.00 0.00 50 1010.5
20260503110154 9 330 3.2 4.8 0.00 0.00 0.00 49 1010.7
20260503100120 10 106 0.0 0.0 0.00 0.00 0.00 48 1011.0
20260503081510 8 321 3.2 3.2 0.00 0.00 0.00 50 1011.8
20260503081007 8 112 1.6 1.6 0.00 0.00 0.00 50 1011.8
20260503080503 8 64 0.0 1.6 0.00 0.00 0.00 50 1011.8
20260503072939 8 103 1.6 1.6 0.00 0.00 0.00 49 1012.0
20260503072437 8 188 4.8 4.8 0.00 0.00 0.00 49 1012.0
20260503071934 8 53 1.6 1.6 0.00 0.00 0.00 49 1012.1
20260503071431 8 186 0.0 1.6 0.00 0.00 0.00 49 1012.2
20260503070926 8 188 3.2 4.8 0.00 0.00 0.00 49 1012.3
20260503070424 8 250 0.0 0.0 0.00 0.00 0.00 48 1012.4
20260503054838 9 125 0.0 0.0 0.00 0.00 0.00 45 1012.8
20260503054333 9 127 0.0 0.0 0.00 0.00 0.00 45 1012.9
20260503053832 9 200 3.2 4.8 0.00 0.00 0.00 45 1012.9
20260503053330 9 139 3.2 3.2 0.00 0.00 0.00 45 1012.9
20260503052826 9 23 0.0 1.6 0.00 0.00 0.00 45 1012.9
20260503052323 9 120 1.6 1.6 0.00 0.00 0.00 44 1013.0
20260503051819 9 106 0.0 0.0 0.00 0.00 0.00 44 1012.9
20260503051315 9 211 0.0 1.6 0.00 0.00 0.00 44 1012.9
20260503050812 9 138 0.0 0.0 0.00 0.00 0.00 44 1013.1
20260503050308 9 213 1.6 3.2 0.00 0.00 0.00 44 1013.2
20260503045806 9 142 0.0 0.0 0.00 0.00 0.00 43 1013.2
20260503045305 9 117 0.0 0.0 0.00 0.00 0.00 44 1013.1
20260503044800 9 81 0.0 0.0 0.00 0.00 0.00 44 1013.1
20260503044257 9 208 0.0 0.0 0.00 0.00 0.00 44 1013.4
20260503043754 9 139 0.0 0.0 0.00 0.00 0.00 44 1013.3
20260503043251 9 147 0.0 0.0 0.00 0.00 0.00 45 1013.3
20260503042747 9 176 3.2 3.2 0.00 0.00 0.00 43 1013.2
20260503042244 9 134 0.0 0.0 0.00 0.00 0.00 44 1013.3
20260503041740 9 133 0.0 0.0 0.00 0.00 0.00 44 1013.8
20260503041238 9 136 0.0 0.0 0.00 0.00 0.00 43 1013.4
20260503040735 9 164 3.2 3.2 0.00 0.00 0.00 43 1013.6
20260503040233 9 178 1.6 3.2 0.00 0.00 0.00 43 1013.8
20260503035729 9 175 0.0 0.0 0.00 0.00 0.00 44 1013.8
20260503035227 9 119 0.0 0.0 0.00 0.00 0.00 44 1013.7
20260503034724 9 186 0.0 0.0 0.00 0.00 0.00 43 1013.8
20260503034221 9 107 0.0 0.0 0.00 0.00 0.00 44 1014.0
20260503033718 9 129 0.0 0.0 0.00 0.00 0.00 44 1013.9
20260503033216 9 141 0.0 0.0 0.00 0.00 0.00 44 1013.9
20260503032714 9 116 0.0 0.0 0.00 0.00 0.00 44 1014.0
20260503032212 9 103 0.0 0.0 0.00 0.00 0.00 43 1014.0
20260503031709 9 128 0.0 0.0 0.00 0.00 0.00 44 1014.0
20260503031208 9 331 0.0 0.0 0.00 0.00 0.00 43 1013.8
20260503030703 9 330 0.0 0.0 0.00 0.00 0.00 43 1014.1
20260503030159 9 330 0.0 0.0 0.00 0.00 0.00 43 1014.1
20260503025656 9 331 0.0 1.6 0.00 0.00 0.00 43 1014.2
20260503025154 9 330 0.0 0.0 0.00 0.00 0.00 44 1014.3